Hourly Weather Rudawki

Today, 16 April, Friday

Time Temperature Precipitation Wind Pressure Humidity
00:00 +3°C° 0.1 mm 4 mps 757 mmHg 89%
01:00 +3°C° 0 mm 4 mps 757 mmHg 88%
02:00 +3°C° 0.1 mm 4 mps 756 mmHg 87%
03:00 +1°C° 0.1 mm 4 mps 756 mmHg 87%
04:00 +1°C° 0.1 mm 4 mps 756 mmHg 87%
05:00 +1°C° 0 mm 4 mps 756 mmHg 88%
06:00 +1°C° 0 mm 5 mps 756 mmHg 89%
07:00 +1°C° 0 mm 5 mps 756 mmHg 90%
08:00 +1°C° 0 mm 5 mps 756 mmHg 90%
09:00 +2°C° 0 mm 5 mps 756 mmHg 91%
10:00 +2°C° 0 mm 5 mps 756 mmHg 91%
11:00 +3°C° 0 mm 5 mps 756 mmHg 88%
12:00 +3°C° 0 mm 5 mps 756 mmHg 85%
13:00 +4°C° 0 mm 6 mps 756 mmHg 81%
14:00 +3°C° 0.7 mm 5 mps 756 mmHg 85%
15:00 +3°C° 0.7 mm 5 mps 756 mmHg 88%
16:00 +2°C° 0.7 mm 5 mps 756 mmHg 92%
17:00 +3°C° 0.2 mm 4 mps 756 mmHg 92%
18:00 +3°C° 0.2 mm 4 mps 756 mmHg 92%
19:00 +3°C° 0.2 mm 4 mps 756 mmHg 91%
20:00 +3°C° 0 mm 3 mps 756 mmHg 93%
21:00 +4°C° 0 mm 3 mps 756 mmHg 95%
22:00 +4°C° 0 mm 3 mps 756 mmHg 97%
23:00 +4°C° 0 mm 3 mps 756 mmHg 97%

Tomorrow, 17 April, Saturday

Time Temperature Precipitation Wind Pressure Humidity
00:00 +4°C° 0 mm 3 mps 756 mmHg 97%
01:00 +5°C° 0 mm 3 mps 756 mmHg 97%
02:00 +5°C° 0 mm 3 mps 756 mmHg 97%
03:00 +5°C° 0 mm 3 mps 756 mmHg 97%
04:00 +5°C° 0 mm 3 mps 756 mmHg 96%
05:00 +5°C° 0 mm 3 mps 756 mmHg 96%
06:00 +5°C° 0 mm 3 mps 756 mmHg 95%
07:00 +7°C° 0 mm 3 mps 756 mmHg 95%
08:00 +7°C° 0.6 mm 3 mps 756 mmHg 95%
09:00 +7°C° 0.6 mm 3 mps 756 mmHg 95%
10:00 +7°C° 0.6 mm 3 mps 756 mmHg 96%
11:00 +8°C° 0.1 mm 3 mps 756 mmHg 90%
12:00 +10°C° 0.1 mm 3 mps 756 mmHg 84%
13:00 +11°C° 0.1 mm 3 mps 756 mmHg 78%
14:00 +11°C° 0.4 mm 3 mps 756 mmHg 77%
15:00 +12°C° 0.4 mm 4 mps 756 mmHg 75%
16:00 +12°C° 0.4 mm 4 mps 756 mmHg 73%
17:00 +11°C° 0.1 mm 4 mps 756 mmHg 79%
18:00 +9°C° 0.1 mm 3 mps 757 mmHg 85%
19:00 +8°C° 0.1 mm 3 mps 757 mmHg 91%
20:00 +8°C° 0 mm 3 mps 757 mmHg 92%
21:00 +7°C° 0 mm 2 mps 757 mmHg 93%
22:00 +6°C° 0 mm 2 mps 757 mmHg 94%
23:00 +6°C° 0 mm 2 mps 757 mmHg 95%

Day after tomorrow, 18 April, Sunday

Time Temperature Precipitation Wind Pressure Humidity
00:00 +6°C° 0 mm 2 mps 757 mmHg 95%
01:00 +6°C° 0 mm 2 mps 757 mmHg 96%
02:00 +6°C° 0 mm 2 mps 757 mmHg 96%
03:00 +5°C° 0 mm 2 mps 757 mmHg 96%
04:00 +5°C° 0 mm 2 mps 757 mmHg 96%
05:00 +6°C° 0.1 mm 2 mps 757 mmHg 94%
06:00 +7°C° 0.1 mm 3 mps 757 mmHg 92%
07:00 +8°C° 0.1 mm 3 mps 757 mmHg 90%
08:00 +9°C° 0 mm 3 mps 757 mmHg 86%
09:00 +10°C° 0 mm 3 mps 757 mmHg 82%
10:00 +11°C° 0 mm 4 mps 757 mmHg 77%
11:00 +11°C° 0.4 mm 4 mps 757 mmHg 78%
12:00 +11°C° 0.4 mm 4 mps 757 mmHg 79%
13:00 +11°C° 0.4 mm 4 mps 757 mmHg 80%
14:00 +11°C° 0.2 mm 3 mps 757 mmHg 82%
15:00 +11°C° 0.2 mm 3 mps 757 mmHg 84%
16:00 +11°C° 0.2 mm 3 mps 757 mmHg 85%
17:00 +10°C° 0.1 mm 3 mps 757 mmHg 88%
18:00 +9°C° 0.1 mm 3 mps 757 mmHg 91%
19:00 +9°C° 0.1 mm 3 mps 757 mmHg 93%
20:00 +8°C° 0.1 mm 3 mps 757 mmHg 93%
21:00 +8°C° 0.1 mm 3 mps 757 mmHg 93%
22:00 +8°C° 0.1 mm 2 mps 757 mmHg 93%
23:00 +8°C° 0 mm 2 mps 757 mmHg 93%

19 April, Monday

Time Temperature Precipitation Wind Pressure Humidity
00:00 +8°C° 0 mm 2 mps 757 mmHg 93%
01:00 +8°C° 0 mm 2 mps 757 mmHg 93%
02:00 +8°C° 0 mm 2 mps 757 mmHg 93%
03:00 +8°C° 0 mm 2 mps 757 mmHg 93%
04:00 +8°C° 0 mm 2 mps 757 mmHg 94%
05:00 +8°C° 0 mm 3 mps 757 mmHg 90%
06:00 +9°C° 0 mm 3 mps 757 mmHg 85%
07:00 +9°C° 0 mm 3 mps 757 mmHg 81%
08:00 +10°C° 0 mm 4 mps 757 mmHg 72%
09:00 +12°C° 0 mm 5 mps 757 mmHg 63%
10:00 +13°C° 0 mm 5 mps 757 mmHg 55%
11:00 +13°C° 0 mm 5 mps 756 mmHg 54%
12:00 +13°C° 0 mm 5 mps 756 mmHg 54%
13:00 +13°C° 0 mm 4 mps 756 mmHg 54%
14:00 +13°C° 0 mm 4 mps 756 mmHg 57%
15:00 +12°C° 0 mm 5 mps 756 mmHg 61%
16:00 +12°C° 0 mm 5 mps 755 mmHg 64%
17:00 +11°C° 0 mm 4 mps 755 mmHg 67%
18:00 +10°C° 0 mm 4 mps 755 mmHg 70%
19:00 +9°C° 0 mm 3 mps 755 mmHg 74%
20:00 +9°C° 0 mm 3 mps 755 mmHg 75%
21:00 +9°C° 0 mm 3 mps 755 mmHg 77%
22:00 +8°C° 0 mm 3 mps 755 mmHg 79%
23:00 +8°C° 0 mm 3 mps 755 mmHg 81%

20 April, Tuesday

Time Temperature Precipitation Wind Pressure Humidity
00:00 +7°C° 0 mm 2 mps 754 mmHg 83%
01:00 +7°C° 0 mm 2 mps 754 mmHg 85%
02:00 +6°C° 0 mm 2 mps 754 mmHg 86%
03:00 +5°C° 0 mm 2 mps 754 mmHg 88%
04:00 +5°C° 0 mm 2 mps 754 mmHg 90%
05:00 +5°C° 0 mm 2 mps 754 mmHg 86%
06:00 +6°C° 0 mm 2 mps 754 mmHg 81%
07:00 +7°C° 0 mm 2 mps 753 mmHg 77%
08:00 +8°C° 0 mm 2 mps 753 mmHg 71%
09:00 +9°C° 0 mm 3 mps 753 mmHg 66%
10:00 +10°C° 0 mm 3 mps 753 mmHg 60%
11:00 +11°C° 0.1 mm 4 mps 752 mmHg 59%
12:00 +11°C° 0.1 mm 4 mps 752 mmHg 58%
13:00 +12°C° 0.1 mm 4 mps 752 mmHg 56%
14:00 +11°C° 0 mm 4 mps 752 mmHg 57%
15:00 +10°C° 0 mm 5 mps 751 mmHg 58%
16:00 +10°C° 0 mm 5 mps 751 mmHg 58%
17:00 +10°C° 0 mm 4 mps 751 mmHg 66%
18:00 +7°C° 0 mm 4 mps 751 mmHg 73%
19:00 +7°C° 0 mm 3 mps 751 mmHg 81%
20:00 +5°C° 0 mm 3 mps 751 mmHg 84%
21:00 +5°C° 0 mm 2 mps 751 mmHg 87%
22:00 +4°C° 0 mm 2 mps 751 mmHg 90%
23:00 +4°C° 0 mm 2 mps 751 mmHg 90%

21 April, Wednesday

Time Temperature Precipitation Wind Pressure Humidity
00:00 +4°C° 0 mm 2 mps 750 mmHg 90%
01:00 +4°C° 0 mm 2 mps 750 mmHg 90%
02:00 +3°C° 0 mm 2 mps 750 mmHg 90%
03:00 +3°C° 0 mm 2 mps 750 mmHg 90%
04:00 +3°C° 0 mm 2 mps 750 mmHg 90%
05:00 +4°C° 0 mm 2 mps 750 mmHg 85%
06:00 +6°C° 0 mm 2 mps 750 mmHg 80%
07:00 +7°C° 0 mm 2 mps 750 mmHg 74%
08:00 +8°C° 0.1 mm 2 mps 750 mmHg 68%
09:00 +10°C° 0.1 mm 2 mps 750 mmHg 62%
10:00 +12°C° 0.1 mm 2 mps 749 mmHg 56%
11:00 +11°C° 0.1 mm 3 mps 749 mmHg 53%
12:00 +12°C° 0.1 mm 3 mps 749 mmHg 51%
13:00 +12°C° 0.1 mm 3 mps 749 mmHg 49%
14:00 +12°C° 0.1 mm 3 mps 749 mmHg 50%
15:00 +13°C° 0.1 mm 2 mps 749 mmHg 50%
16:00 +13°C° 0.1 mm 2 mps 749 mmHg 51%
17:00 +12°C° 0 mm 2 mps 749 mmHg 60%
18:00 +9°C° 0 mm 2 mps 749 mmHg 68%
19:00 +7°C° 0 mm 2 mps 749 mmHg 77%
20:00 +7°C° 0 mm 2 mps 749 mmHg 79%
21:00 +6°C° 0 mm 2 mps 749 mmHg 82%
22:00 +5°C° 0 mm 2 mps 749 mmHg 85%
23:00 +5°C° 0 mm 2 mps 749 mmHg 85%
Show more